Hourly Data Report for October 18, 2014

All times are specified in Local Standard Time (LST). Add 1 hour to adjust for Daylight Saving Time where and when it is observed.

CLYDE RIVER A
NUNAVUT

70°29'09.000" N
68°31'01.000" W
26.50 m
2400804
71090
YCY

Download Data

Hourly Data (October 2014)
Hourly Data Report for October 18, 2014
Temp Definition
°C
Dew Point Temp Definition
°C
Rel Hum Definition
%
Wind Dir Definition
10's deg

Wind Spd Definition
km/h
Visibility Definition
km
Stn Press Definition
kPa
Hmdx Definition


Wind Chill Definition


Weather Definition


TIME
00:00 Legend Double Dagger -5.4 -6.9 89 30 21 11.3 101.35   -12 Snow
01:00 Legend Double Dagger -5.6 -7.0 90 30 26 3.6 101.33   -13 Snow
02:00 Legend Double Dagger -5.4 -6.5 92 30 24 16.1 101.30   -13 Snow
03:00 Legend Double Dagger -4.5 -5.8 91 30 17 16.1 101.29   -10 Snow
04:00 Legend Double Dagger -4.2 -5.5 91 32 24 4.8 101.26   -11 Snow
05:00 Legend Double Dagger -4.7 -5.8 92 31 32 16.1 101.23   -13 Snow
06:00 Legend Double Dagger -4.5 -5.6 92 31 21 8.1 101.23   -11 Snow
07:00 Legend Double Dagger -4.4 -6.1 88 31 22 16.1 101.20   -11 Snow
08:00 Legend Double Dagger -4.4 -6.6 85 31 24 16.1 101.19   -11 Snow
09:00 Legend Double Dagger -4.8 -7.4 82 31 21 16.1 101.17   -11 LegendNANA
10:00 Legend Double Dagger -5.5 -7.8 84 30 21 16.1 101.16   -12 LegendNANA
11:00 Legend Double Dagger -4.9 -8.2 78 29 21 16.1 101.11   -12 LegendNANA
12:00 Legend Double Dagger -5.3 -8.1 81 32 13 16.1 101.08   -10 LegendNANA
13:00 Legend Double Dagger -5.3 -8.4 79 29 17 16.1 101.08   -11 LegendNANA
14:00 Legend Double Dagger -5.4 -8.3 80 28 13 16.1 101.07   -11 LegendNANA
15:00 Legend Double Dagger -5.1 -8.5 77 25 5 16.1 101.08   -7 LegendNANA
16:00 Legend Double Dagger -5.9 -8.8 80 30 5 16.1 101.07   -8 LegendNANA
17:00 Legend Double Dagger -7.1 -9.6 83 LegendMM 4 16.1 101.07   -9 LegendNANA
18:00 Legend Double Dagger -9.4 -11.9 82 27 5 16.1 101.05   -12 LegendNANA
19:00 Legend Double Dagger -10.0 -13.0 79 LegendMM 4 16.1 101.05   -12 LegendNANA
20:00 Legend Double Dagger -6.5 -10.0 77 19 4 16.1 101.00   -8 LegendNANA
21:00 Legend Double Dagger -6.0 -10.3 72 14 8 16.1 100.98   -10 LegendNANA
22:00 Legend Double Dagger -6.8 -12.0 67 29 9 16.1 100.96   -11 LegendNANA
23:00 Legend Double Dagger -10.5 -13.4 80 31 21 16.1 100.96   -19 LegendNANA

Notes on Data Quality.

Legend

  • E = Estimated
  • M = Missing
  • NA = Not Available
  • ‡ = Partner data that is not subject to review by the National Climate Archives
Date modified: